Flag for Syria Weather past 2 weeks in Damascus, Syria

Now
39 °F

Chilly.


Feels Like: 34 °F
Forecast: 36 / 58 °F
Wind: 7 mph from Southwest

Location: Damascus Int. Airport

Current Time: Mar 1, 2015 at 5:50:35 AM

Latest Report: Mar 1, 2015 at 5:00 AM


Visibility: 0 mi

Pressure: 30.07 "Hg

Humidity: 93%

Dew point: 37 °F

Location of DamascusLocation

Historic Weather in Damascus — Graph

°F

Damascus temperature yesterday

Maximum temperature yesterday: 68 °F (at 11:00 AM)
Minimum temperature yesterday: 39 °F (at 5:00 AM)
Average temperature yesterday: 53 °F

Past Weeks' High & Low Weather Summary

 TemperatureHumidityPressure
High68 °F (Feb 27, 3:00 PM)100% (Feb 14, 5:00 AM)30.30 "Hg (Feb 14, 5:00 AM)
Low28 °F (Feb 21, 7:00 AM)24% (Feb 27, 4:00 PM)29.56 "Hg (Feb 20, 5:00 PM)
Average46 °F70%30.00 "Hg
* Reported Feb 14 4:00 AM — Mar 1 4:00 AM, Damascus, Weather by CustomWeather, © 2015

Note: Actual official high and low records may vary slightly from our data, if they occured in-between our weather recording intervals... More about our weather records

Advertising

Damascus weather history for previous 24 hours

 ConditionsComfort  
Time TempWeatherWind HumidityBarometerVisibility
4:00 AM
Sun, Mar 1
43 °FClear.12 mph93%30.07 "Hg10 mi
3:00 AM43 °FClear.9 mph87%30.07 "Hg10 mi
2:00 AM43 °FClear.14 mph81%30.07 "Hg10 mi
1:00 AM43 °FClear.12 mph76%30.09 "Hg10 mi
12:00 AM43 °FClear.9 mph81%30.09 "Hg10 mi
11:00 PM
Sat, Feb 28
46 °FClear.14 mph76%30.09 "Hg10 mi
10:00 PM46 °FClear.18 mph76%30.07 "Hg10 mi
9:00 PM48 °FClear.16 mph71%30.09 "Hg10 mi
8:00 PM50 °FClear.14 mph62%30.07 "Hg10 mi
7:00 PM57 °FClear.16 mph48%30.07 "Hg10 mi
6:00 PM57 °FPassing clouds.14 mph31%30.04 "HgN/A
5:00 PM63 °FPassing clouds.16 mph37%30.04 "HgN/A
4:00 PM64 °FPassing clouds.18 mph26%30.01 "HgN/A
3:00 PM66 °FPassing clouds.14 mph24%30.01 "HgN/A
2:00 PM66 °FPassing clouds.14 mph24%30.01 "HgN/A
1:00 PM68 °FPassing clouds.18 mph28%30.01 "HgN/A
12:00 PM68 °FScattered clouds.16 mph30%30.01 "Hg4 mi
11:00 AM68 °FScattered clouds.18 mph30%30.01 "HgN/A
10:00 AM61 °FSunny.18 mph42%30.01 "Hg10 mi
9:00 AM55 °FSunny.10 mph51%30.04 "Hg10 mi
8:00 AM43 °FSunny.10 mph49%30.04 "Hg10 mi
7:00 AM39 °FSunny.6 mph81%30.01 "Hg10 mi
6:00 AM39 °FClear.3 mph81%29.98 "Hg10 mi
5:00 AM39 °FClear.3 mph81%29.95 "Hg10 mi
Weather by CustomWeather, © 2015

See weather overviewHow to use our weather pages